Location: Unspecified
(0.0000°N, 0.0000°E)
Time: 01:55:14
(UTC+00:00)

Nadezhda 5 - Visible Passes

Search period start: 27 February 2021 00:00
Search period end: 09 March 2021 00:00
Orbit: 973 x 1013 km, 82.9° (Epoch: 26 February)

Date Brightness Start Highest point End Pass type
(mag) Time Alt. Az. Time Alt. Az. Time Alt. Az.
27 Feb 7.2 19:03:40 10° SW 19:09:00 29° W 19:14:18 10° NNW visible
28 Feb 8.3 19:38:18 10° W 19:39:30 11° W 19:40:42 10° WNW visible
01 Mar 7.5 05:11:28 10° NE 05:16:25 24° E 05:21:24 10° SE visible
02 Mar 5.8 05:40:42 10° N 05:46:54 60° E 05:53:11 10° SSE visible
02 Mar 7.6 18:50:07 10° SW 18:55:05 25° W 19:00:01 10° NW visible
03 Mar 8.3 04:31:04 10° ENE 04:32:01 10° E 04:32:57 10° E visible
04 Mar 7.1 04:57:11 10° NNE 05:02:30 28° E 05:07:51 10° SE visible
05 Mar 5.4 05:26:42 10° N 05:32:59 70° E 05:39:22 10° S visible
05 Mar 7.9 18:36:38 10° SW 18:41:09 21° W 18:45:39 10° NW visible
06 Mar 8.0 04:15:24 10° ENE 04:18:05 13° E 04:20:47 10° ESE visible
07 Mar 6.8 04:42:58 10° NNE 04:48:35 33° E 04:54:14 10° SSE visible
08 Mar 5.2 05:12:43 10° N 05:19:04 82° E 05:25:30 10° S visible
